Regional Weather Roundup
Issued by NWS

Home | Current Version | Previous Version | Graphics & Text | Print | Product List | Glossary Off
Versions: 1 2 3 4 5 6 7 8 9 10 11 12 13 14 15 16 17 18 19 20 21 22 23 24 25 26 27 28 29 30 31 32 33 34 35 36 37 38 39 40 41 42 43 44 45 46 47 48 49 50

733
ASUS43 KMKX 060000
RWRWI

WISCONSIN REGIONAL WEATHER ROUNDUP
NATIONAL WEATHER SERVICE MILWAUKEE/SULLIVAN WI
700 PM CDT THU MAY 05 2016

NOTE: "FAIR" INDICATES FEW OR NO CLOUDS BELOW 12,000 FEET WITH NO
SIGNIFICANT WEATHER AND/OR OBSTRUCTIONS TO VISIBILITY.

WIZ001-002-006>008-014>016-023>028-060100-
NORTHWEST WISCONSIN

CITY           SKY/WX    TMP DP  RH WIND       PRES   REMARKS
SUPERIOR ARPT  SUNNY     80  40  24 W16G23    29.79F
ASHLAND        SUNNY     73  39  29 SW10      29.84F
6HR MIN TEMP:  69; 6HR MAX TEMP:  76;

HAYWARD        SUNNY     70  37  29 SW10      29.89S
6HR MIN TEMP:  64; 6HR MAX TEMP:  71;

SIREN          SUNNY     75  35  23 SW13      29.87F
CUMBERLAND     SUNNY     70  34  26 SW13      29.90F
RICE LAKE      SUNNY     70  36  28 SW8       29.92F
CHETEK         SUNNY     69  40  35 SW5       29.92S
LADYSMITH      MOSUNNY   65  38  37 SW8       29.93F
EAU CLAIRE     NOT AVBL
MENOMONIE      SUNNY     72  37  27 SW8       29.92F
NEW RICHMOND   SUNNY     73  36  26 SW6       29.90F
OSCEOLA        SUNNY     75  37  25 SW8       29.92F
$$

WIZ003>005-009-010-017-018-060100-
NORTH CENTRAL WISCONSIN

CITY           SKY/WX    TMP DP  RH WIND       PRES   REMARKS
MANITOWISH WTR CLOUDY    66  40  37 SW10      29.88F
ARBOR VITAE    CLOUDY    64  36  34 SW5       29.91R
WOODRUFF       CLOUDY    64  36  34 SW5       29.91R
RHINELANDER    SUNNY     66  37  34 W10       29.92R
6HR MIN TEMP:  62; 6HR MAX TEMP:  69;

EAGLE RIVER    SUNNY     66  32  27 SW7       29.90S
LAND O LAKES   SUNNY     68  32  26 SW5       29.90S
PHILLIPS       MOSUNNY   65  39  38 SW8       29.90F
TOMAHAWK       SUNNY     64  35  34 SW3       29.92S
MEDFORD        MOSUNNY   63  39  42 W9        29.94S
MERRILL        SUNNY    N/A N/A N/A W9        29.94R
$$

WIZ029-030-035-036-043>047-060100-
CENTRAL WISCONSIN

CITY           SKY/WX    TMP DP  RH WIND       PRES   REMARKS
WAUSAU         SUNNY     66  37  34 W12       29.92S
6HR MIN TEMP:  62; 6HR MAX TEMP:  68;

MOSINEE        SUNNY     63  36  36 W9        29.95F
MARSHFIELD     MOSUNNY   65  37  35 W5        29.94S
6HR MIN TEMP:  61; 6HR MAX TEMP:  69;

STEVENS POINT  SUNNY     64  32  31 W5        29.94F
WAUPACA        SUNNY     68  27  21 W7        29.94S
WAUTOMA        NOT AVBL
WISC RAPIDS    SUNNY     67  30  25 W6        29.95S
6HR MIN TEMP:  62; 6HR MAX TEMP:  69;

CAMP DOUGLAS   NOT AVBL
$$

WIZ011>013-019>022-031-037>040-048>050-060100-
NORTHEAST WISCONSIN

CITY           SKY/WX    TMP DP  RH WIND       PRES   REMARKS
ANTIGO         SUNNY     61  39  43 SW13      29.93S
SHAWANO        SUNNY     70  29  22 W7        29.91F
OCONTO         CLEAR     61  38  43 S8        29.91F
STURGEON BAY   CLOUDY    54  37  54 SE9       29.95F
6HR MIN TEMP:  52; 6HR MAX TEMP:  59;

GREEN BAY      CLEAR     64  41  42 S7        29.92F
6HR MIN TEMP:  58; 6HR MAX TEMP:  66;

MANITOWOC      NOT AVBL
APPLETON       PTCLDY    61  36  39 S8        29.92F
CLINTONVILLE   SUNNY     68  30  24 W8        29.91F
OSHKOSH        CLEAR     61  40  45 SE6       29.94F
6HR MIN TEMP:  58; 6HR MAX TEMP:  64;

$$

WIZ032>034-041-042-053>061-060100-
SOUTHWEST WISCONSIN

CITY           SKY/WX    TMP DP  RH WIND       PRES   REMARKS
LA CROSSE      CLOUDY    70  36  28 CALM      29.94F
6HR MIN TEMP:  62; 6HR MAX TEMP:  71;

SPARTA         CLOUDY    67  37  32 SW7       29.96S
VIROQUA        CLOUDY    66  35  30 W8        29.97F
BOSCOBEL       CLOUDY    69  32  25 NW3       29.96F
6HR MIN TEMP:  65; 6HR MAX TEMP:  71;

PRAIRIE DU CHI SUNNY     69  31  25 W8        29.96F
PLATTEVILLE    SUNNY     65  32  29 W7        29.98S
$$

WIZ056-057-062-063-064-067-068-060100-
SOUTH CENTRAL WISCONSIN

CITY           SKY/WX    TMP DP  RH WIND       PRES   REMARKS
REEDSBURG      SUNNY     64  36  34 NW6       29.95F
BARABOO/DELLS  SUNNY     65  28  24 W7        29.96S
LONE ROCK      NOT AVBL
MINERAL POINT  SUNNY     64  32  29 W9        29.97F
MADISON        PTSUNNY   65  32  29 W7        29.96S
6HR MIN TEMP:  60; 6HR MAX TEMP:  67;

MIDDLETON      SUNNY     65  31  27 NW8       29.97S
WATERTOWN      CLEAR     64  37  36 NW5       29.95F
MONROE         SUNNY     64  34  32 W6        29.97F
JANESVILLE     CLEAR     64  37  36 N6        29.96F
$$

WIZ051-052-058>065-066-070>072-060100-
SOUTHEAST WISCONSIN

CITY           SKY/WX    TMP DP  RH WIND       PRES   REMARKS
MILWAUKEE      MOCLDY    51  37  58 E3        29.98S
6HR MIN TEMP:  51; 6HR MAX TEMP:  55;

WAUKESHA       CLEAR     61  34  36 NW8       29.97S
MILWAUKEE/TIMM CLEAR     54  36  50 E5        29.98
RACINE         CLEAR     51  36  56 SE3       29.98F
6HR MIN TEMP:  51; 6HR MAX TEMP:  56;

BURLINGTON     CLEAR     64  32  31 NW6       29.96S
KENOSHA        CLEAR     52  38  58 E6        29.97F
6HR MIN TEMP:  52; 6HR MAX TEMP:  64;

FOND DU LAC    CLEAR     63  40  42 NE5       29.94F
6HR MIN TEMP:  57; 6HR MAX TEMP:  65;

SHEBOYGAN      CLEAR     54  39  57 SE5       29.96S
6HR MIN TEMP:  54; 6HR MAX TEMP:  59;

WEST BEND      CLEAR     57  39  51 E8        29.96S
JUNEAU         CLEAR     64  36  35 W6        29.96F
$$

LSZ147-162-060100-
LAKE SUPERIOR

STATION/POSITION TIME  TEMP    WIND        PRES    WAVE
                       AIR SEA DIR/SP/G            HT/PER
                 (UTC) (F)     (DEG/KT/KT) (MB)    (FT/S)
W MID LAKE BUOY  2250   43 37  120/  4/  4 1010.9F   0
DEVILS ISLAND    2300   67     180/  8/ 10 1009.3F
SAXON HARBOR     2300   73     220/  7/ 12 1010.2
$$

LMZ867-665-643>646-060100-
LAKE MICHIGAN

STATION/POSITION TIME  TEMP    WIND        PRES    WAVE
                       AIR SEA DIR/SP/G            HT/PER
                 (UTC) (F)     (DEG/KT/KT) (MB)    (FT/S)
CHAMBERS ISLAND  2300   58     150/  6/ 10 1013.2F
N MID LAKE BUOY  2250   41 39  190/  8/  8 1013.9F   0
NORTHPORT PIER   2300   51     170/  6/  8 1013.5F
ALGOMA LAKESHORE 2315          210/ 10/ 11   N/A
KEWAUNEE LAKESHO 2300                      1013.8F
SHEBOYGAN LAKESH 2300   45     180/  4/  5 1015.5F
PORT WASHINGTON  2300   47      CALM  /  3 1015.6
S MID LAKE BUOY  2250   43 40   30/  4/  6 1014.9F   2/ 5
KENOSHA   LAKESH 2300   49      CALM  /  2 1015.2F
$$

TC  - TEMPERATURE IN CELSIUS
VSB - VISIBILITY IN STATUTE MILES
WCI - WIND CHILL INDEX
HX  - HEAT INDEX





USA.gov is the U.S. government's official web portal to all federal, state and local government web resources and services.